This is the latest recevied weather packets stored in our database for station/object K2ATL. If no packets are shown the sender has not sent any weather packets the latest 10 day(s).
| Time | Temp. | Humidity | Pressure | Rain* | Wind** | Luminosity | Snow |
|---|---|---|---|---|---|---|---|
| 1787740592 | 19.44° C | 85% | 1103.7 hPa | 0 mm | - | 0 W/m² | - |
| 1787740287 | 19.44° C | 85% | 1103.6 hPa | 0 mm | - | 0 W/m² | - |
| 1787739982 | 19.44° C | 86% | 1103.6 hPa | 0 mm | - | 0 W/m² | - |
| 1787739679 | 18.89° C | 85% | 1103.7 hPa | 0 mm | - | 0 W/m² | - |
| 1787739374 | 19.44° C | 84% | 1103.4 hPa | 0 mm | - | 0 W/m² | - |
| 1787739069 | 19.44° C | 84% | 1103.6 hPa | 0 mm | - | 0 W/m² | - |
| 1787738765 | 19.44° C | 84% | 1103.4 hPa | 0 mm | - | 0 W/m² | - |
| 1787738461 | 20.56° C | 82% | 1103.4 hPa | 0 mm | - | 0 W/m² | - |
| 1787738159 | 21.11° C | 78% | 1103.4 hPa | 0 mm | - | 0 W/m² | - |
| 1787737855 | 21.11° C | 78% | 1103.3 hPa | 0 mm | - | 0 W/m² | - |
| 1787737550 | 21.11° C | 78% | 1103.4 hPa | 0 mm | - | 0 W/m² | - |
| 1787737244 | 21.11° C | 77% | 1103.4 hPa | 0 mm | - | 0 W/m² | - |
| 1787736941 | 21.11° C | 77% | 1103.3 hPa | 0 mm | - | 0 W/m² | - |
| 1787736636 | 21.11° C | 77% | 1103.5 hPa | 0 mm | - | 0 W/m² | - |
| 1787736331 | 21.11° C | 76% | 1103.5 hPa | 0 mm | - | 0 W/m² | - |
| 1787736030 | 21.11° C | 77% | 1103.4 hPa | 0 mm | - | 0 W/m² | - |
| 1787735729 | 21.11° C | 78% | 1103.2 hPa | 0 mm | - | 0 W/m² | - |
| 1787735425 | 21.11° C | 76% | 1103.5 hPa | 0 mm | - | 0 W/m² | - |
| 1787735124 | 21.11° C | 76% | 1103.4 hPa | 0 mm | - | 0 W/m² | - |
| 1787734820 | 21.11° C | 76% | 1103.3 hPa | 0 mm | - | 0 W/m² | - |
| 1787734519 | 21.67° C | 76% | 1103.4 hPa | 0 mm | - | 0 W/m² | - |
| 1787734215 | 21.11° C | 76% | 1103.4 hPa | 0 mm | - | 0 W/m² | - |
| 1787733910 | 21.11° C | 77% | 1103.3 hPa | 0 mm | - | 0 W/m² | - |
| 1787733609 | 21.11° C | 76% | 1103.4 hPa | 0 mm | - | 0 W/m² | - |
| 1787733305 | 21.11° C | 76% | 1103.6 hPa | 0 mm | - | 0 W/m² | - |
* Rain latest hour (hover to see other rain measurements)
** Current wind speed in m/s (hover to see current wind gust speed)